Location: Newark
(45.5167°N, 11.1667°E)
Time: 21:39:00
(UTC+00:00)

Tiros 1 despin weight - Visible Passes

Search period start: 13 December 2019 00:00
Search period end: 23 December 2019 00:00
Orbit: 594 x 642 km, 48.2° (Epoch: 12 December)

Date Brightness Start Highest point End Pass type
(mag) Time Alt. Az. Time Alt. Az. Time Alt. Az.
13 Dec ? 04:04:48 56° E 04:04:48 56° E 04:08:28 10° ENE visible
13 Dec ? 05:41:53 14° W 05:45:41 62° N 05:50:06 10° ENE visible
14 Dec ? 04:20:51 75° NE 04:20:51 75° NE 04:25:03 10° ENE visible
14 Dec ? 05:57:56 10° WNW 06:02:23 61° N 06:06:48 10° E visible
15 Dec ? 02:59:46 12° ENE 02:59:46 12° ENE 03:00:04 10° ENE visible
15 Dec ? 04:36:50 62° NW 04:37:12 66° N 04:41:41 10° ENE visible
16 Dec ? 03:15:42 16° ENE 03:15:42 16° ENE 03:16:40 10° ENE visible
16 Dec ? 04:52:45 44° WNW 04:53:54 61° N 04:58:20 10° E visible
17 Dec ? 03:31:35 22° ENE 03:31:35 22° ENE 03:33:15 10° ENE visible
17 Dec ? 05:08:39 32° WNW 05:10:36 64° N 05:15:02 10° E visible
18 Dec ? 03:47:28 31° ENE 03:47:28 31° ENE 03:49:54 10° ENE visible
18 Dec ? 05:24:32 23° WNW 05:27:16 77° NNE 05:31:44 10° ESE visible
19 Dec ? 04:03:20 43° ENE 04:03:20 43° ENE 04:06:35 10° E visible
19 Dec ? 05:40:24 17° WNW 05:43:51 79° SSW 05:48:18 10° ESE visible
20 Dec ? 04:19:13 64° NE 04:19:13 64° NE 04:23:17 10° E visible
20 Dec ? 05:56:17 12° WNW 06:00:20 51° SSW 06:04:39 10° SE visible
21 Dec ? 02:58:03 10° E 02:58:03 10° E 02:58:07 10° E visible
21 Dec ? 04:35:07 76° NW 04:35:26 86° NNE 04:39:56 10° ESE visible
21 Dec ? 06:12:44 10° W 06:16:43 31° SW 06:20:38 10° SSE visible
22 Dec ? 03:13:58 15° E 03:13:58 15° E 03:14:49 10° E visible
22 Dec ? 04:51:02 51° W 04:51:59 67° SSW 04:56:26 10° ESE visible
